| time (UTC) | temp C | wind direction | speed KPH | gust KPH | rain 1hr cm | rain 24hr cm | rain mn cm | humidity % | barometer mb |
| 20260906210031 | 29 | 133 | 0.0 | 0.0 | 0.00 | 0.00 | 0.00 | 58 | 1007.8 |
| 20260906204529 | 28 | 131 | 0.0 | 0.0 | 0.00 | 0.00 | 0.00 | 61 | 1008.0 |
| 20260906203029 | 28 | 108 | 0.0 | 1.6 | 0.00 | 0.00 | 0.00 | 64 | 1008.3 |
| 20260906201529 | 28 | 96 | 0.0 | 0.0 | 0.00 | 0.00 | 0.00 | 68 | 1008.5 |
| 20260906200026 | 27 | 167 | 0.0 | 1.6 | 0.00 | 0.00 | 0.00 | 69 | 1008.8 |
| 20260906194524 | 27 | 139 | 0.0 | 1.6 | 0.00 | 0.00 | 0.00 | 64 | 1009.2 |
| 20260906193023 | 29 | 109 | 0.0 | 1.6 | 0.00 | 0.00 | 0.00 | 60 | 1009.3 |
| 20260906191521 | 28 | 86 | 0.0 | 1.6 | 0.00 | 0.00 | 0.00 | 64 | 1008.9 |
| 20260906190015 | 28 | 64 | 0.0 | 0.0 | 0.00 | 0.00 | 0.00 | 63 | 1008.7 |
| 20260906184514 | 27 | 148 | 0.0 | 0.0 | 0.00 | 0.00 | 0.00 | 65 | 1008.4 |
| 20260906183015 | 27 | 50 | 0.0 | 0.0 | 0.00 | 0.00 | 0.00 | 68 | 1008.5 |
| 20260906181506 | 26 | 94 | 0.0 | 0.0 | 0.00 | 0.00 | 0.00 | 71 | 1009.3 |
| 20260906180002 | 25 | 86 | 0.0 | 0.0 | 0.00 | 0.00 | 0.00 | 70 | 1009.4 |
| 20260906174600 | 23 | 25 | 0.0 | 0.0 | 0.00 | 0.00 | 0.00 | 80 | 1009.4 |
| 20260906173106 | 22 | 24 | 0.0 | 0.0 | 0.00 | 0.00 | 0.00 | 84 | 1009.4 |
| 20260906171600 | 21 | 59 | 0.0 | 0.0 | 0.00 | 0.00 | 0.00 | 92 | 1009.7 |
| 20260906164557 | 20 | 34 | 0.0 | 0.0 | 0.00 | 0.00 | 0.00 | 93 | 1010.4 |
| 20260906163056 | 20 | 61 | 0.0 | 0.0 | 0.00 | 0.00 | 0.00 | 92 | 1010.6 |
| 20260906161555 | 20 | 311 | 0.0 | 0.0 | 0.00 | 0.00 | 0.00 | 92 | 1010.2 |
| 20260906160054 | 20 | 304 | 0.0 | 1.6 | 0.00 | 0.00 | 0.00 | 91 | 1010.6 |
| 20260906154551 | 22 | 316 | 0.0 | 0.0 | 0.00 | 0.00 | 0.00 | 86 | 1010.6 |
| 20260906153050 | 23 | 307 | 0.0 | 0.0 | 0.00 | 0.00 | 0.00 | 83 | 1009.2 |
| 20260906151552 | 25 | 317 | 0.0 | 0.0 | 0.00 | 0.00 | 0.00 | 79 | 1009.0 |
| 20260906150046 | 25 | 255 | 0.0 | 0.0 | 0.00 | 0.00 | 0.00 | 81 | 1008.7 |
| 20260906144541 | 24 | 180 | 0.0 | 0.0 | 0.00 | 0.00 | 0.00 | 88 | 1008.8 |
| 20260906143036 | 23 | 193 | 0.0 | 0.0 | 0.00 | 0.00 | 0.00 | 92 | 1008.9 |
| 20260906141536 | 22 | 183 | 0.0 | 0.0 | 0.00 | 0.00 | 0.00 | 97 | 1009.0 |
| 20260906140033 | 21 | 215 | 0.0 | 0.0 | 0.00 | 0.00 | 0.00 | 97 | 1009.3 |
| 20260906134531 | 21 | 188 | 0.0 | 0.0 | 0.00 | 0.00 | 0.00 | 98 | 1009.5 |
| 20260906133029 | 20 | 229 | 0.0 | 0.0 | 0.00 | 0.00 | 0.00 | 98 | 1009.5 |
| 20260906131529 | 19 | 316 | 0.0 | 0.0 | 0.00 | 0.00 | 0.00 | 98 | 1009.2 |
| 20260906130025 | -17 | 0.0 | 0.0 | 0.00 | 0.00 | 0.00 | 1009.2 | ||
| 20260906124517 | -17 | 0.0 | 0.0 | 0.00 | 0.00 | 0.00 | 1009.0 | ||
| 20260906123013 | -17 | 0.0 | 0.0 | 0.00 | 0.00 | 0.00 | 1009.1 | ||
| 20260906121508 | -17 | 0.0 | 0.0 | 0.00 | 0.00 | 0.00 | 1009.1 | ||
| 20260906120009 | -17 | 0.0 | 0.0 | 0.00 | 0.00 | 0.00 | 1009.1 | ||
| 20260906114557 | -17 | 0.0 | 0.0 | 0.00 | 0.00 | 0.00 | 1008.9 | ||
| 20260906113057 | -17 | 0.0 | 0.0 | 0.00 | 0.00 | 0.00 | 1008.9 | ||
| 20260906111549 | -17 | 0.0 | 0.0 | 0.00 | 0.00 | 0.00 | 1009.0 | ||
| 20260906110044 | -17 | 0.0 | 0.0 | 0.00 | 0.00 | 0.00 | 1009.1 | ||
| 20260906104511 | -17 | 0.0 | 0.0 | 0.00 | 0.00 | 0.00 | 1009.0 | ||
| 20260906103010 | -17 | 0.0 | 0.0 | 0.00 | 0.00 | 0.00 | 1009.0 | ||
| 20260906101600 | 18 | 100 | 0.0 | 0.0 | 0.00 | 0.00 | 0.00 | 95 | 1008.9 |
| 20260906100057 | 18 | 114 | 0.0 | 0.0 | 0.00 | 0.00 | 0.00 | 96 | 1008.7 |
| 20260906094558 | 18 | 114 | 0.0 | 0.0 | 0.00 | 0.00 | 0.00 | 95 | 1008.7 |
| 20260906093057 | 18 | 114 | 0.0 | 0.0 | 0.00 | 0.00 | 0.00 | 95 | 1008.8 |
| 20260906091550 | 18 | 107 | 0.0 | 0.0 | 0.00 | 0.00 | 0.00 | 95 | 1008.9 |
| 20260906090050 | 18 | 132 | 0.0 | 0.0 | 0.00 | 0.00 | 0.00 | 95 | 1009.0 |
| 20260906084548 | 18 | 62 | 0.0 | 0.0 | 0.00 | 0.00 | 0.00 | 95 | 1008.8 |
| 20260906083048 | 18 | 84 | 0.0 | 0.0 | 0.00 | 0.00 | 0.00 | 94 | 1008.7 |
| 20260906081545 | 19 | 28 | 0.0 | 0.0 | 0.00 | 0.00 | 0.00 | 94 | 1008.6 |
| 20260906080043 | 19 | 60 | 0.0 | 0.0 | 0.00 | 0.00 | 0.00 | 94 | 1008.7 |
| 20260906074541 | 19 | 64 | 0.0 | 0.0 | 0.00 | 0.00 | 0.00 | 93 | 1008.8 |
| 20260906073039 | 20 | 64 | 0.0 | 0.0 | 0.00 | 0.00 | 0.00 | 93 | 1008.9 |
| 20260906071536 | 20 | 133 | 0.0 | 0.0 | 0.00 | 0.00 | 0.00 | 92 | 1009.1 |
| 20260906070034 | 20 | 104 | 0.0 | 0.0 | 0.00 | 0.00 | 0.00 | 92 | 1008.8 |
| 20260906064536 | 20 | 102 | 0.0 | 0.0 | 0.00 | 0.00 | 0.00 | 91 | 1008.8 |
| 20260906063031 | 20 | 98 | 0.0 | 0.0 | 0.00 | 0.00 | 0.00 | 90 | 1008.9 |
| 20260906061621 | 20 | 118 | 0.0 | 0.0 | 0.00 | 0.00 | 0.00 | 90 | 1008.9 |
| 20260906060109 | 20 | 75 | 0.0 | 0.0 | 0.00 | 0.00 | 0.00 | 90 | 1008.9 |
| 20260906054558 | 20 | 67 | 0.0 | 0.0 | 0.00 | 0.00 | 0.00 | 89 | 1008.9 |
| 20260906053056 | 20 | 99 | 0.0 | 0.0 | 0.00 | 0.00 | 0.00 | 89 | 1008.8 |
| 20260906051604 | 20 | 92 | 0.0 | 0.0 | 0.00 | 0.00 | 0.00 | 90 | 1008.9 |
| 20260906050057 | 20 | 82 | 0.0 | 0.0 | 0.00 | 0.00 | 0.00 | 90 | 1008.9 |
| 20260906044551 | 20 | 63 | 0.0 | 0.0 | 0.00 | 0.00 | 0.00 | 90 | 1009.0 |
| 20260906043048 | 21 | 76 | 0.0 | 0.0 | 0.00 | 0.00 | 0.00 | 89 | 1008.9 |
| 20260906041546 | 21 | 75 | 0.0 | 0.0 | 0.00 | 0.00 | 0.00 | 88 | 1008.6 |
| 20260906040047 | 21 | 134 | 0.0 | 0.0 | 0.00 | 0.00 | 0.00 | 88 | 1008.6 |
| 20260906034539 | 21 | 61 | 0.0 | 0.0 | 0.00 | 0.00 | 0.00 | 86 | 1008.6 |
| 20260906033038 | 21 | 65 | 0.0 | 0.0 | 0.00 | 0.00 | 0.00 | 83 | 1008.6 |
| 20260906031534 | 22 | 84 | 0.0 | 0.0 | 0.00 | 0.00 | 0.00 | 81 | 1008.4 |
| 20260906030031 | 22 | 60 | 0.0 | 0.0 | 0.00 | 0.00 | 0.00 | 82 | 1008.4 |
| 20260906024530 | 22 | 70 | 0.0 | 0.0 | 0.00 | 0.00 | 0.00 | 83 | 1008.2 |
| 20260906023106 | 22 | 59 | 0.0 | 0.0 | 0.00 | 0.00 | 0.00 | 80 | 1008.1 |
| 20260906021555 | 23 | 353 | 0.0 | 0.0 | 0.00 | 0.00 | 0.00 | 75 | 1007.8 |
| 20260906020024 | 24 | 58 | 0.0 | 0.0 | 0.00 | 0.00 | 0.00 | 74 | 1007.3 |
| 20260906014523 | 25 | 94 | 0.0 | 0.0 | 0.00 | 0.00 | 0.00 | 72 | 1007.0 |
| 20260906013033 | 26 | 98 | 0.0 | 0.0 | 0.00 | 0.00 | 0.00 | 68 | 1006.8 |
| 20260906011519 | 27 | 138 | 0.0 | 0.0 | 0.00 | 0.00 | 0.00 | 64 | 1006.7 |
| 20260906010020 | 28 | 160 | 0.0 | 0.0 | 0.00 | 0.00 | 0.00 | 61 | 1006.8 |
| 20260906004518 | 29 | 98 | 0.0 | 0.0 | 0.00 | 0.00 | 0.00 | 57 | 1007.0 |
| 20260906003048 | 30 | 115 | 0.0 | 1.6 | 0.00 | 0.00 | 0.00 | 54 | 1006.9 |
| 20260906001547 | 32 | 150 | 0.0 | 4.8 | 0.00 | 0.00 | 0.00 | 48 | 1006.7 |
| 20260906000045 | 32 | 133 | 0.0 | 0.0 | 0.00 | 0.00 | 0.00 | 45 | 1006.6 |
| 20260905234544 | 32 | 140 | 0.0 | 0.0 | 0.00 | 0.00 | 0.00 | 44 | 1006.7 |
| 20260905233045 | 33 | 143 | 0.0 | 0.0 | 0.00 | 0.00 | 0.00 | 43 | 1006.8 |
| 20260905231543 | 33 | 82 | 0.0 | 0.0 | 0.00 | 0.00 | 0.00 | 42 | 1006.6 |
| 20260905230040 | 33 | 176 | 0.0 | 0.0 | 0.00 | 0.00 | 0.00 | 43 | 1006.4 |
| 20260905224539 | 33 | 140 | 0.0 | 0.0 | 0.00 | 0.00 | 0.00 | 43 | 1006.1 |
| 20260905223039 | 33 | 113 | 0.0 | 0.0 | 0.00 | 0.00 | 0.00 | 42 | 1005.9 |
| 20260905221538 | 33 | 135 | 0.0 | 0.0 | 0.00 | 0.00 | 0.00 | 42 | 1006.1 |
| 20260905220036 | 33 | 101 | 0.0 | 0.0 | 0.00 | 0.00 | 0.00 | 42 | 1006.2 |
| 20260905214535 | 33 | 115 | 0.0 | 0.0 | 0.00 | 0.00 | 0.00 | 43 | 1006.5 |
| 20260905213031 | 33 | 121 | 0.0 | 0.0 | 0.00 | 0.00 | 0.00 | 43 | 1006.7 |
| 20260905211530 | 33 | 143 | 0.0 | 0.0 | 0.00 | 0.00 | 0.00 | 43 | 1006.7 |